Weather History for KBFD - September, 2013

Change the Weather History Date:

Sunday, September 8, 2013

  Actual Average Record
Temperature  
Mean Temperature 58 °F 59 °F  
Max Temperature 70 °F 71 °F 87 °F (1959)
Min Temperature 45 °F 48 °F 30 °F (1986)
Degree Days  
Heating Degree Days 7 3  
Month to date heating degree days 44 17  
Since 1 July heating degree days 180 170  
Cooling Degree Days 0 1  
Month to date cooling degree days 8 8  
Year to date cooling degree days 303 185  
Growing Degree Days 10 (Base 50)    
Moisture  
Dew Point 55 °F    
Average Humidity 69    
Maximum Humidity 93    
Minimum Humidity 44    
Precipitation  
Precipitation 0.00 in 0.14 in 0.82 in (1981)
Month to date precipitation 0.87 1.03  
Year to date precipitation 22.28 30.98  
Sea Level Pressure  
Sea Level Pressure 30.00 in    
Wind  
Wind Speed 6 mph (NNW)    
Max Wind Speed 15 mph    
Max Gust Speed 20 mph    
Visibility 7 miles    
Events Fog    
T = Trace of Precipitation, MM = Missing Value Source: NWS Daily Summary

Daily Weather History Graph

Daily Weather History Graph

Search for Another Location

Airport or City:

Trip Planner

Search our weather history database for the weather conditions in past years. The results will help you decide how hot, cold, wet, or windy it might be!

Date:

Astronomy

Sep. 08, 2013 Rise Set
Actual Time 6:47 AM EDT 7:35 PM EDT
Civil Twilight 6:19 AM EDT 8:03 PM EDT
Nautical Twilight 5:46 AM EDT 8:37 PM EDT
Astronomical Twilight 5:11 AM EDT 9:11 PM EDT
Moon 10:07 AM EDT (9/8) 9:05 PM EDT (9/8)
Length of Visible Light 13h 44m
Length of Day
12h 47m
Waxing Crescent, 11% of the Moon is Illuminated
Sep 8
Waxing Crescent
Sep 12
First Quarter
Sep 19
Full
Sep 26
Last Quarter
Oct 4
New

Hourly Weather History & Observations

Time (EDT) Temp. Dew Point Humidity Pressure Visibility Wind Dir Wind Speed Gust Speed Precip Events Conditions
12:53 AM 61.0 °F 55.9 °F 83% 29.94 in 10.0 mi SW 3.5 mph - N/A   Overcast
1:53 AM 61.0 °F 57.0 °F 87% 29.93 in 8.0 mi WSW 3.5 mph - N/A   Overcast
2:53 AM 62.1 °F 57.9 °F 86% 29.91 in 6.0 mi WSW 4.6 mph - N/A   Overcast
3:18 AM 62.1 °F 59.0 °F 90% 29.95 in 5.0 mi WSW 4.6 mph - N/A   Overcast
3:53 AM 62.1 °F 59.0 °F 90% 29.91 in 4.0 mi SW 3.5 mph - N/A   Mostly Cloudy
4:00 AM 62.1 °F 59.0 °F 90% 29.94 in 4.0 mi WSW 5.8 mph - N/A   Overcast
4:18 AM 62.1 °F 59.0 °F 90% 29.94 in 2.5 mi WSW 5.8 mph - N/A   Overcast
4:53 AM 62.1 °F 59.0 °F 90% 29.91 in 1.8 mi Variable 3.5 mph - N/A   Mist
5:00 AM 62.1 °F 59.0 °F 90% 29.94 in 2.0 mi West 4.6 mph - N/A   Mist
5:15 AM 62.1 °F 59.0 °F 90% 29.94 in 2.5 mi Variable 3.5 mph - N/A   Overcast
5:23 AM 62.1 °F 59.0 °F 90% 29.94 in 3.0 mi West 3.5 mph - N/A   Overcast
5:53 AM 62.1 °F 59.0 °F 90% 29.93 in 3.0 mi Variable 4.6 mph - N/A   Overcast
6:21 AM 63.0 °F 59.0 °F 87% 29.95 in 4.0 mi Calm Calm - N/A   Overcast
6:31 AM 63.0 °F 59.0 °F 87% 29.95 in 4.0 mi West 4.6 mph - N/A   Overcast
6:53 AM 63.0 °F 60.1 °F 90% 29.94 in 4.0 mi NW 3.5 mph - N/A   Overcast
7:05 AM 63.0 °F 60.1 °F 90% 29.97 in 2.5 mi NW 4.6 mph - N/A   Overcast
7:10 AM 63.0 °F 60.1 °F 90% 29.97 in 1.8 mi NW 3.5 mph - N/A   Overcast
7:31 AM 63.0 °F 60.1 °F 90% 29.97 in 0.5 mi NW 3.5 mph - N/A Fog Fog
7:53 AM 63.0 °F 60.1 °F 90% 29.96 in 0.5 mi WNW 3.5 mph - N/A Fog Fog
8:15 AM 64.0 °F 61.0 °F 90% 29.99 in 1.0 mi NW 5.8 mph - N/A   Overcast
8:43 AM 64.0 °F 61.0 °F 90% 29.99 in 2.5 mi NNW 5.8 mph - N/A   Overcast
8:53 AM 64.0 °F 61.0 °F 90% 29.97 in 2.5 mi North 11.5 mph - N/A   Overcast
9:13 AM 63.0 °F 59.0 °F 87% 30.01 in 7.0 mi NNW 10.4 mph - N/A   Overcast
10:48 AM 64.4 °F 57.2 °F 77% 30.02 in 10.0 mi Variable 5.8 mph - N/A   Overcast
10:53 AM 64.0 °F 57.9 °F 80% 30.00 in 10.0 mi NNE 6.9 mph - N/A   Overcast
11:08 AM 61.0 °F 57.0 °F 87% 30.03 in 7.0 mi NNE 9.2 mph - N/A   Overcast
11:24 AM 63.0 °F 57.9 °F 84% 30.03 in 10.0 mi NNE 9.2 mph - N/A   Mostly Cloudy
11:37 AM 63.0 °F 57.0 °F 81% 30.04 in 10.0 mi NNE 6.9 mph - N/A   Overcast
11:53 AM 62.1 °F 55.9 °F 80% 30.02 in 10.0 mi North 6.9 mph - N/A   Overcast
12:53 PM 61.0 °F 54.0 °F 78% 30.05 in 10.0 mi North 8.1 mph - N/A   Overcast
1:00 PM 62.1 °F 54.0 °F 75% 30.07 in 10.0 mi North 6.9 mph - N/A   Overcast
1:45 PM 64.9 °F 54.0 °F 68% 30.06 in 10.0 mi NNW 5.8 mph - N/A   Mostly Cloudy
1:53 PM 64.9 °F 53.1 °F 65% 30.04 in 10.0 mi NNW 10.4 mph - N/A   Mostly Cloudy
2:18 PM 68.0 °F 53.1 °F 59% 30.06 in 10.0 mi NNW 11.5 mph 18.4 mph N/A   Scattered Clouds
2:36 PM 66.0 °F 51.1 °F 59% 30.06 in 10.0 mi North 9.2 mph - N/A   Mostly Cloudy
2:53 PM 68.0 °F 51.1 °F 55% 30.02 in 10.0 mi North 13.8 mph 20.7 mph N/A   Mostly Cloudy
3:03 PM 68.0 °F 51.1 °F 55% 30.05 in 10.0 mi North 11.5 mph - N/A   Scattered Clouds
4:53 PM 69.1 °F 46.9 °F 45% 30.02 in 10.0 mi NNW 9.2 mph - N/A   Clear
5:53 PM 68.0 °F 46.0 °F 45% 30.04 in 10.0 mi NNW 8.1 mph - N/A   Clear
6:53 PM 64.0 °F 46.9 °F 54% 30.05 in 10.0 mi North 5.8 mph - N/A   Clear
7:53 PM 59.0 °F 46.9 °F 64% 30.06 in 10.0 mi NNE 4.6 mph - N/A   Clear
8:53 PM 55.9 °F 44.1 °F 64% 30.09 in 10.0 mi NE 5.8 mph - N/A   Clear
9:53 PM 54.0 °F 44.1 °F 69% 30.09 in 10.0 mi ENE 5.8 mph - N/A   Clear
10:53 PM 50.0 °F 43.0 °F 77% 30.11 in 10.0 mi East 4.6 mph - N/A   Clear
11:53 PM 48.9 °F 43.0 °F 80% 30.13 in 10.0 mi Calm Calm - N/A   Clear